Location: Ash Swamp
(41.5170°N, 74.6157°W)
Time: 01:52:14
(UTC+00:00)

IRS-1D - Pass Details

Date: 14 July 2020
Orbit: 739 x 817 km, 98.6° (Epoch: 14 August)

Event Time Altitude Azimuth Distance (km) Brightness Sun altitude
Rises 07:21:31 0° 11° (NNE) 3,190 7.9 -19.4°
Reaches altitude 10° 07:23:48 10° 11° (N) 2,259 6.9 -19.1°
Maximum altitude 07:28:45 78° 286° (WNW) 762 3.4 -18.6°
Enters shadow 07:30:54 34° 205° (SSW) 1,197 4.0 -18.4°
